User: anonymous   Login
Location: Niverville
(49.6028°N, 97.0419°W)
Time: 22:39:32
(UTC-05:00)
Language:

Cosmos 2237 Rocket - Orbit

View from above orbital plane
View from above orbital plane
View from above satellite
View from above satellite

Ground track
Ground track

The orbit data is extracted from the following two-line orbital elements,

1 22566U 93016B   18112.49665601 -.00000391 +00000-0 -17732-3 0  9998
2 22566 071.0046 137.6587 0009668 009.3508 350.7793 14.14957003295017
Epoch (UTC): 22 April 2018 11:55:11
Eccentricity: 0.0009668
inclination: 71.0046°
perigee height: 835 km
apogee height: 849 km
right ascension of ascending node: 137.6587°
argument of perigee: 9.3508°
revolutions per day: 14.14957003
mean anomaly at epoch: 350.7793°
orbit number at epoch: 29501

The dashed part of the orbit path shows where the satellite is in the earth's shadow,  

DLR